Lid_Strength_Index
4 4 4 4 4 3 3 3 3 3 3 3 3 3 3 2 2 3 5 3 3 -2 -1 3 2 3 4 4 4 4 10 12 10 10 9 6 7 5 4 6 5 4 5 4 2
4 4 4 4 4 4 4 4 4 4 4 3 3 3 3 2 4 5 0 -3 -3 -1 4 6 7 6 7 6 5 7 10 10 7 7 8 6 6 6 7 7 6 5 4 3 2
4 4 4 4 4 4 4 4 4 4 4 4 3 3 2 3 6 6 -2 -2 -1 -1 4 6 7 8 9 7 6 7 9 7 7 6 6 7 7 5 7 8 6 7 5 4 3
4 4 4 4 4 4 4 4 4 4 4 4 3 2 3 5 12 5 -1 -1 -1 1 5 7 8 9 10 10 6 8 6 6 6 6 6 7 6 7 6 6 4 4 4 4 4
4 4 4 4 4 4 4 5 5 5 5 4 3 3 5 7 8 2 -2 -0 0 3 6 8 8 8 10 9 6 7 7 6 5 6 6 6 7 7 6 4 3 4 4 4 4
4 4 4 4 4 4 4 5 5 5 5 4 3 3 7 11 6 4 1 2 3 6 7 8 8 7 9 9 8 6 6 6 6 6 6 7 7 6 6 4 4 4 4 4 4
4 4 4 4 4 4 4 5 5 5 5 4 3 4 6 9 5 5 4 5 4 6 8 7 7 8 8 10 7 5 8 7 7 7 7 6 9 8 5 5 5 5 4 4 4
4 4 4 4 4 4 5 5 5 5 4 4 3 5 10 4 4 4 6 5 5 7 7 7 6 8 9 8 8 8 8 11 8 7 6 7 12 7 5 6 6 5 5 4 4
4 4 4 4 4 5 5 5 5 3 4 3 6 7 8 1 4 4 5 5 6 7 8 5 7 9 9 11 12 11 12 11 10 7 7 9 11 7 5 6 6 6 5 5 4
4 4 4 4 5 5 5 5 5 3 3 2 3 8 7 6 4 4 5 4 7 8 8 9 10 11 11 12 15 13 12 10 10 8 8 10 10 7 6 6 6 6 5 5 5
4 4 4 5 5 6 7 8 10 7 4 6 6 6 6 5 3 5 4 6 8 9 11 10 12 13 11 10 10 10 10 10 8 7 9 10 10 8 7 6 7 6 6 5 5
4 4 4 5 5 5 7 11 10 8 10 5 4 4 4 4 5 5 6 7 10 12 10 11 13 10 7 7 9 11 10 10 9 7 8 10 10 8 7 7 6 6 6 6 5
4 4 5 5 5 6 7 7 5 8 11 7 6 6 5 5 5 6 7 7 10 11 11 12 10 7 7 9 10 11 10 10 10 8 8 10 12 10 8 7 6 6 5 5 5
4 4 5 5 9 8 9 8 6 7 13 9 9 6 6 5 7 4 5 7 10 11 11 11 8 8 8 9 9 14 9 8 9 10 14 9 17 12 9 8 7 6 6 5 5
4 4 5 5 9 9 8 6 6 8 16 7 7 4 5 7 7 7 5 8 10 10 11 11 9 9 9 8 8 11 8 9 9 10 12 12 15 12 10 10 8 7 6 5 5
4 5 5 7 9 7 6 7 8 12 16 9 6 8 8 7 7 6 6 7 7 9 10 10 6 8 8 8 8 8 10 11 12 15 16 12 13 14 12 10 8 7 6 5 5
5 5 6 6 11 9 8 9 12 15 8 9 10 8 9 9 8 7 8 10 11 13 14 10 9 7 7 10 9 10 13 16 16 17 16 14 13 12 9 8 7 7 6 5 5
5 6 6 6 7 7 10 12 15 10 9 8 8 8 10 9 9 8 10 11 9 11 13 13 12 9 8 9 11 12 12 15 17 17 15 12 14 11 7 6 6 5 5 5 5
6 8 8 7 6 8 10 15 14 11 8 9 10 10 11 9 9 9 11 10 9 10 12 14 12 8 8 8 9 11 13 11 13 13 15 14 11 8 7 7 6 6 6 6 5
8 9 8 6 5 9 13 14 12 8 8 9 12 10 12 11 11 11 10 9 8 8 9 11 13 10 8 8 8 9 9 13 14 17 18 15 13 13 11 9 7 7 6 6 5
10 10 7 4 6 10 15 14 11 9 8 9 11 11 11 11 11 11 10 8 7 7 9 10 12 11 10 11 10 10 12 12 12 14 16 17 14 10 10 8 8 7 6 6 6
10 13 6 4 10 11 13 12 10 10 8 9 9 10 11 10 11 11 11 9 7 7 10 10 13 13 11 9 8 10 10 12 14 15 14 15 14 8 8 7 7 7 6 6 6
12 10 6 7 13 12 10 9 8 9 8 9 10 9 9 11 12 10 9 7 7 7 8 9 13 14 13 12 11 11 11 11 13 14 15 15 13 8 8 9 8 7 7 6 5
10 11 8 8 9 10 11 10 9 6 7 7 9 9 10 11 10 11 10 7 7 6 5 6 13 13 14 13 12 13 11 11 12 14 14 13 12 10 9 8 7 7 7 6 5
9 9 9 12 11 11 11 9 9 9 6 6 8 9 9 12 10 10 9 8 7 6 6 9 13 12 12 10 10 10 10 11 13 12 12 13 11 10 8 7 7 7 6 5 6
9 9 8 11 11 11 11 10 9 9 8 8 9 8 8 10 10 11 10 11 10 8 10 11 13 12 12 10 10 11 10 9 10 10 10 10 10 8 6 7 7 6 6 7 7
8 7 9 11 11 11 11 10 10 9 7 7 8 8 8 8 8 8 8 9 8 10 10 11 11 13 14 11 10 12 11 10 9 8 9 11 9 8 8 7 7 7 7 7 6